UmeLogo
   UmeNom


Informaci general   Notcies, activitats   Marxa del Garraf   Articles   Contactar   

Marxa del Garraf 2009 :: Llista de persones qualificades :


Garraf 21
Llista ordenada pel temps

 

Llegenda ordre RAS= ordre d'arribada relativa al sexe
ordre ABS= ordre d'arribada absoluta

tempsnomdorsalordre
RAS
ordre
ABS
km/hmin/km
02:11:43BROCH BIAZ, JOANd 13931r1r9,57 km6:16 min saltar
02:17:09PUJADES ESPAOL, JOSEPd 12332n2n9,19 km6:31 min saltar saltar
02:21:53BOFILL BARGU, FERRANd 11963r3r8,88 km6:45 min
02:35:36DEMANUEL, JAVIERd 13904t4t8,1 km7:24 min
02:37:00MONGE MORENO, AURELIOd 1256558,03 km7:28 min
02:37:00NICOLAU RUIZ, NESTORd 1388558,03 km7:28 min
02:37:30ANENTO MORENO, BRBARAd 10171a7a8 km7:30 min
02:39:23FERNNDEZ VZQUEZ, ALBERTOd 1008787,91 km7:35 min
02:39:24MOGINO MARTNEZ, JORDId 1394897,9 km7:35 min
02:39:28PRUNA FRANGESGH, PILARd 13242a10a7,9 km7:35 min
02:40:00GARCA RODRGUEZ, SERGIOd 11159117,88 km7:37 min
02:41:20COT PASCUAL, ENRICd 132110127,81 km7:40 min
02:42:02SILVERIO LOMA, IVNd 129111137,78 km7:42 min
02:45:00RAVENTS, LLUISd 131412147,64 km7:51 min
02:45:13MUNNE, JOANd 131313157,63 km7:52 min
02:46:19MIGUEL ROJO, JOSE LUISd 104114167,58 km7:55 min
02:46:24VILLAR RUBIROLA, JOSEP ORIOLd 137215177,57 km7:55 min
02:47:13PREZ GALLARDO, JUAN CARLOSd 110916187,54 km7:57 min
02:48:05RAVENTOS ROCA, ALBERTd 135717197,5 km8 min
02:49:55MESQUIDA GUERRA, DAVIDd 131218207,42 km8:5 min
02:50:20BURON MARTINEZ, FERRANd 123419217,4 km8:6 min
02:51:52MESQUIDA GUERRA, ANTONIOd 130920227,33 km8:11 min
02:52:47ORTIZ JIMENEZ, JUAN CARLOSd 140021237,29 km8:13 min
02:52:48FERNNDEZ BRULLAS, LEXd 133622247,29 km8:13 min
02:53:36ROSELL LASHERAS, MIKELd 129423257,26 km8:16 min
02:57:20PRIOR CIUTAT, JORDId 118224267,11 km8:26 min
02:57:21FERNANDEZ, JUAN CARLOSd 109625277,1 km8:26 min
02:57:37PASTOR, EVA MARIAd 10973a28a7,09 km8:27 min
02:57:47MNDEZ MORAL, SERGIOd 129726297,09 km8:27 min
02:57:52MNDEZ FERNNDEZ, GERARDOd 129627307,08 km8:28 min saltar saltar
02:58:42SIM BIGORD, JORDId 100928317,05 km8:30 min saltar saltar
02:58:54BIGORD SALARICH, XAVId 105729327,04 km8:31 min
02:59:24RUZAFA, JOS LUISd 102130337,02 km8:32 min
02:59:27ROMERA PEREZ, JAVIERd 140631347,02 km8:32 min
03:00:04GMEZ GALN, PEDRO JOSd 132032357 km8:34 min
03:00:07MELLADO VEGA, JOSE ANTONIOd 136033367 km8:34 min
03:00:31SENSERRICH PASAN, JAUMEd 139534376,98 km8:35 min
03:00:51ROVIRA, LUISd 131935386,97 km8:36 min
03:00:51SENSERRICH CHAVEZ, MARCd 139635386,97 km8:36 min
03:00:57NADAL, IVANd 100337406,96 km8:37 min
03:01:50RIUS BALLESTER, XAVIERd 123538416,93 km8:39 min
03:01:53AGUST MARTNEZ, JOSEPd 137739426,93 km8:39 min
03:03:29GALVEZ LLAVES, EVAd 13874a43a6,87 km8:44 min
03:03:46DURAN URBAN, PABLOd 122940446,86 km8:45 min
03:12:29GELONCH VILAMAJO, ROGERd 118141456,55 km9:9 min
03:13:17ROMERO GOMEZ, ANGEL LUISd 106542466,52 km9:12 min
03:15:28RIBAS RIBERT, JOANd 103643476,45 km9:18 min
03:15:56URBAN MURILLO, LIDIAd 12265a48a6,43 km9:19 min
03:19:19GONZLEZ MONDJAR, JUANd 112744496,32 km9:29 min
03:19:51SANCHEZ TOMAS, ANDREUd 111945506,3 km9:31 min
03:20:18NOBLE YLARDUYA, GERALDINEd 12286a51a6,29 km9:32 min
03:21:12SANCHEZ LOZANO, FELIXd 111646526,26 km9:34 min
03:21:25GOMEZ SORDO, FRANCISCOd 121347536,26 km9:35 min
03:21:32DIAZ SANCHEZ, ALFONSOd 112048546,25 km9:35 min
03:21:44MARTNEZ RIERA, ORIOLd 133849556,25 km9:36 min
03:23:50MATEU BONET, CRISTINAd 11147a56a6,18 km9:42 min
03:27:53LOPEZ ESTEVE, MARTAd 10598a57a6,06 km9:53 min
03:28:22MONTAA CABACS, JORDId 132350586,05 km9:55 min
03:28:34RIOS GUTIERREZ, JUAN MANUELd 113851596,04 km9:55 min
03:31:26ALIAS ETXEBARRIA, MARTAd 12079a60a5,96 km10:4 min saltar saltar
03:31:36ORGILLS, PEDRO JOSEd 100252615,95 km10:4 min saltar saltar
03:31:44PINTOR PEREZ, JOSEd 107453625,95 km10:4 min
03:33:13CANOVAS RODRIGUEZ, JOSEP ANTONId 128054635,91 km10:9 min
03:33:40ORGILLES, CAROLINAd 100110a64a5,9 km10:10 min
03:33:56MUNS GRANGEL, TONId 138555655,89 km10:11 min
03:34:04MOLINO GONZLEZ, JOSd 138456665,89 km10:11 min
03:34:07CASTELLS, ALBERTd 138957675,88 km10:11 min
03:34:32ALEMANY HERNANDO, ALMUDENAd 120811a68a5,87 km10:12 min
03:34:33ALEMANY HERNANDO, VICENTEd 120958695,87 km10:13 min
03:35:35ARNABAT, NATId 131112a70a5,84 km10:15 min
03:36:42URIOSTE HERNANDEZ, DAVIDd 107559715,81 km10:19 min
03:38:37HERNANDEZ SIERRA, ANTONIOd 119060725,76 km10:24 min
03:38:40FLOTATS PARERA, BALDIRId 110261735,76 km10:24 min
03:39:38NOGUERA JULIAN, ANTONId 120262745,74 km10:27 min
03:40:01PREZ DUEAS, BELNd 103913a75a5,73 km10:28 min
03:41:36PREZ ROMERO, ANAd 126214a76a5,69 km10:33 min
03:41:39CAAS GONZLEZ, ALBERTd 126163775,68 km10:33 min
03:42:58GONZALEZ CASTELLA, DAVIDd 122064785,65 km10:37 min
03:43:13MORENO BLANCO, AGUSTNd 121765795,64 km10:37 min
03:43:37MART SALLERAS, CARLESd 136566805,63 km10:38 min
03:43:54RODRGUEZ SICILIA, JORDId 119167815,63 km10:39 min
03:45:53BARRIOS MARTN, FRANCISCO JAVIERd 121968825,58 km10:45 min
03:47:10GIN GIN, JORDId 134969835,55 km10:49 min
03:47:22ALBORCH COTET, JULIANd 114470845,54 km10:49 min
03:48:15MEDRANO MEDRANO, AITORd 138171855,52 km10:52 min
03:48:32ALIAGA NAVARRO, NURIAd 122715a86a5,51 km10:52 min
03:49:29VZQUEZ MORENO, DAVIDd 112372875,49 km10:55 min
03:50:19GIL DOMINGUEZ, AITANAd 127216a88a5,47 km10:58 min
03:50:37MARTNEZ PAJARES, CRISTINAd 137417a89a5,46 km10:58 min
03:54:31MUOZ, FRANCISCOd 117173905,37 km11:10 min saltar saltar
03:55:50ABS TORRES, EDUARDd 126074915,34 km11:13 min saltar saltar
03:55:54ACCENSI ANDREU, XAVId 110575925,34 km11:13 min
03:55:56VIAS SURRIBAS, JOSEPd 119876935,34 km11:14 min
03:56:42GRAU MARTINEZ, AGUSTINd 126377945,32 km11:16 min
04:00:13MUOZ GARCA, CARLOSd 104778955,25 km11:26 min
04:06:45COSTA MAS, JOSEPd 117779965,11 km11:45 min
04:06:46GRATOVIL DUCH, ARANTXAd 117818a97a5,11 km11:45 min
04:08:47SEGURA XARTO, MIQUELd 140180985,06 km11:50 min
04:08:52MARQUEZ GONZALEZ, ANAd 140219a99a5,06 km11:51 min
04:16:13PREZ VZQUEZ, JAVIERd 1325811004,92 km12:12 min
04:16:33FONT MAURI, DAVIDd 1045821014,91 km12:13 min
04:18:07SOLINA GARCIA, BENETd 1245831024,88 km12:17 min
04:18:26SOLINA ARNAU, MARCd 1244841034,88 km12:18 min
04:19:54PEREZ SARRALDE, ITZIARd 140520a104a4,85 km12:22 min
04:20:29SANCHEZ LUQUE, FRANCISCOd 1378851054,84 km12:24 min
04:22:56CHECA ALCALDE, JORDId 1379861064,79 km12:31 min
04:22:58RUIZ DE ALDA CAAMARES, LOLAd 113621a107a4,79 km12:31 min
04:23:06GMEZ ROJAS, FRANCISCO JOSd 1399871084,79 km12:31 min
04:29:32GOMEZ PIZARRO, GERARDOd 1067881094,67 km12:50 min
04:29:40RUIZ PAREDES, BORJAd 1066891104,67 km12:50 min
04:30:08LAGUNA ARANDA, MIRIAMd 136122a111a4,66 km12:51 min
04:30:28SAEZ DE OCARIZ GRANJA, UNAId 1090901124,66 km12:52 min
04:33:56ROMERAL BALLESTER, GEMMAd 115023a113a4,6 km13:2 min
04:33:57DURO LPEZ, JAVIERd 1151911144,6 km13:2 min
04:35:25BRULLAS TOMS, ANNAd 133724a115a4,57 km13:6 min
04:35:28AMOR GARCIA, ALBERTOd 1205921164,57 km13:7 min
04:35:33FERNNDEZ BRULLAS, POLd 1335931174,57 km13:7 min
04:36:08ROMANO LPEZ, INMACULADAd 138325a118a4,56 km13:8 min
04:36:09DIEGO ROBLEDO, CESARd 1242941194,56 km13:9 min
04:36:09MONCS MIRALLES, PEREd 1382941194,56 km13:9 min saltar saltar
04:38:13GIL EGEA, JOSE LUISd 1271961214,53 km13:14 min saltar saltar
04:38:19RECASENS GARCIA, ALBERTd 1085971224,53 km13:15 min
04:38:20MONFIL BIGORRA, SANDRAd 108626a123a4,53 km13:15 min
04:39:13MARTNEZ ALONSO, MABELd 116927a124a4,51 km13:17 min
04:39:17FABREGAT MARCOS, VANESAd 129528a125a4,51 km13:17 min
04:39:39PARRA ENFEDAQUE, ANTOLd 1108981264,51 km13:18 min
04:40:04VALENCIA DELGADO, TELESFOROd 1118991274,5 km13:20 min
04:40:39MONTSERRAT FUSTER, JOSEPd 11011001284,49 km13:21 min
04:42:25SOLDEVILA COSP, MONICAd 123029a129a4,46 km13:26 min
04:42:28LATORRE SOLDEVILA, DIEUNAd 123130a130a4,46 km13:27 min
04:42:31MAZARIEGO CANYELLAS, SALVADORd 12371011314,46 km13:27 min
04:42:55BARRIO MOLINA, MARCELINOd 12731021324,45 km13:28 min
04:43:27CERECEDA GARCA, FRANCISCOd 12841031334,45 km13:29 min
04:44:35SALINAS MARTINEZ, JOAQUINd 10911041344,43 km13:33 min
04:46:36LUJAN, FRANCISCOd 10841051354,4 km13:38 min
04:47:30RAVENTOS BONET, JORDId 13561061364,38 km13:41 min
04:47:56ROSET ESCRIBA, MELCHORd 11831071374,38 km13:42 min
04:49:04NIELLA, FRANCESCd 10251081384,36 km13:45 min
04:49:12GMEZ PORCEL, JORGEd 12921091394,36 km13:46 min
04:49:16NIELLA, JOANd 10261101404,36 km13:46 min
04:49:43ROCA SANTACANA, MARCd 12901111414,35 km13:47 min
04:50:23BARROS NUEZ, MATEOd 12001121424,34 km13:49 min
04:50:30LLA PEDREO, XAVIERd 13051131434,34 km13:50 min
04:50:33GARCIA ESPEJO, ARACELId 119931a144a4,34 km13:50 min
04:51:17LUQUE GRANADOS, MANUELd 12931141454,33 km13:52 min
04:52:49MUOZ FUENTES, ANA Md 106832a146a4,3 km13:56 min
04:53:13PI I RIERA, ESTEVEd 11681151474,3 km13:57 min
04:55:27ARMERO MARTINEZ, DAVIDd 12101161484,26 km14:4 min
04:55:34BENICO SANZ, MARIA LUZd 121133a149a4,26 km14:4 min
04:56:05FANDOS SOLSONA, MARTAd 111234a150a4,26 km14:5 min saltar saltar
04:56:06ARCHILS RIGUAL, DAVIDd 11131171514,26 km14:5 min saltar saltar
04:59:23GIL GONZLEZ, JOSE ANTONIOd 13391181524,21 km14:15 min
04:59:45COCA MARTINEZ, JOSE ANTONIOd 11421191534,2 km14:16 min
04:59:47PEREIRO CRUZ, DAVIDd 11431201544,2 km14:16 min
04:59:54TORRECILLAS LOPEZ, MARTINd 12391211554,2 km14:16 min
05:00:15BLANCO DIAZ, RUBENd 12381221564,2 km14:17 min
05:00:22COCA MARTINEZ, AGUSTINd 11401231574,19 km14:18 min
05:00:33COCA MARTINEZ, CARLOSd 11411241584,19 km14:18 min
05:01:34AGUILAR GONZLEZ, MONTSERRATd 127435a159a4,18 km14:21 min
05:02:22FERNANDEZ CRUELLS, MONTSEd 107036a160a4,17 km14:23 min
05:03:00RELLO MARTNEZ, ESTHERd 115437a161a4,16 km14:25 min
05:03:10PLAZA MORUNO, ALBERTOd 13151251624,16 km14:26 min
05:03:23MORILLO MORUNO, VICTORd 13171261634,15 km14:26 min
05:04:00GONZALEZ MUNUERA, OSCARd 10781271644,14 km14:28 min
05:04:45ALCONCHEL GARCIA, SILVIAd 117038a165a4,13 km14:30 min
05:06:14DOMENECH MARTIN, LAIAd 116539a166a4,11 km14:34 min
05:07:18GOMEZ GARCA, VIRTUd 107940a167a4,1 km14:37 min
05:08:08SIERRA RODRIGO, JUAN JOSd 11461281684,09 km14:40 min
05:08:16LOPEZ SANTOS, SEBASTIANd 11471291694,09 km14:40 min
05:08:28TOLEDO ARROYO, ESTERd 136641a170a4,08 km14:41 min
05:11:15RIBA, ROSA MARIAd 106042a171a4,05 km14:49 min
05:12:38ZAMORA LAHIGUERA, EVAd 107743a172a4,03 km14:53 min
05:13:24BAEZ RUBIO, MONICAd 109344a173a4,02 km14:55 min
05:13:25HERNANDEZ UTRERAS, DAVIDd 10881301744,02 km14:55 min
05:13:34LOP, MNICAd 109945a175a4,02 km14:55 min
05:13:37SEDANO MATEOS, JUAN JOSEd 10891311764,02 km14:56 min
05:13:42CASTILLA MEDINA, SAMANTAd 115346a177a4,02 km14:56 min
05:15:31ALCALDE GASCN, GERARDd 10341321783,99 km15:1 min
05:15:43ALCALDE GARCIA, JOSEPd 10351331793,99 km15:2 min
05:15:53MUOZ FERNNDEZ, MONTSERRATd 107147a180a3,99 km15:2 min saltar saltar
05:16:46AUBESO RENEDO, OLIVERd 10301341813,98 km15:5 min saltar saltar
05:18:06CAMA RUBIES, JORDId 13481351823,96 km15:8 min
05:18:22GABARDINO RODRIGO, BERNARDOd 13011361833,96 km15:9 min
05:18:24ESCABADA BERICAT, JAVIERd 13801371843,96 km15:9 min
05:18:31CASTRO JIMENEZ, ANDREUd 13001381853,96 km15:10 min
05:18:54CARRILLO FRANZONI, MARCELO FABIANd 12121391863,95 km15:11 min
05:19:00MASSONI BADELL, JOANd 13551401873,95 km15:11 min
05:20:04MEDIALDEA CUERVA, JUAN JOSEd 13081411883,94 km15:14 min
05:20:40POZO GONZLEZ, MARCOSd 13691421893,93 km15:16 min
05:21:00JOV BERGA, FRANCESCd 13541431903,93 km15:17 min
05:21:32GARCIA COLOMO, JOS LUISd 11851441913,92 km15:18 min
05:21:41GARCIA MORILLAS, SCARd 11841451923,92 km15:19 min
05:22:10GUARINOS NAVARRO, DIEGOd 13681461933,91 km15:20 min
05:22:18MARTORELL BOTE, OLGAd 123248a194a3,91 km15:20 min
05:22:22ZURRIAGA MITJANS, JOANd 13181471953,91 km15:21 min
05:23:24GRACIA GAZQUEZ, GUILLEMd 10311481963,9 km15:24 min
05:25:00MENDEZ AGUILAR, PASTORAd 134649a197a3,88 km15:28 min
05:25:17BELTRAN SALVADOR, ANAd 134350a198a3,87 km15:29 min
05:25:22BALSERA GARCA, MONTSERRATd 134551a199a3,87 km15:29 min
05:25:34MELLADO VEGA, SOLEDADd 134752a200a3,87 km15:30 min
05:25:47BELTRAN SALVADOR, ROSAd 134453a201a3,87 km15:30 min
05:26:17PREZ MATA, PERE MIQUELd 12881492023,86 km15:32 min
05:26:21HERRERO BADENAS, ANTONIOd 12791502033,86 km15:32 min
05:26:32FUERTES ARAQUE, JOAQUINd 12701512043,86 km15:32 min
05:26:35HERNNDEZ MEDINA, SERGId 12891522053,86 km15:33 min
05:26:59RAVENTS CUYAS, MARALd 12871532063,85 km15:34 min
05:28:17MURCIA BOJ, SERGId 11211542073,84 km15:37 min
05:28:28SNCHEZ LAHOZ, PAULAd 106354a208a3,84 km15:38 min
05:28:34RIF FORNT, RICARDd 10941552093,83 km15:38 min
05:29:19AGUST SANFELIU, ROSAd 108055a210a3,83 km15:40 min saltar saltar
05:30:14MORELL TORMO, DAVIDd 10811562113,82 km15:43 min saltar saltar
05:30:43VALLET CASADEVALL, ARNAUd 11251572123,81 km15:44 min
05:31:29RAMON SOLE, CARMEd 125056a213a3,8 km15:47 min
05:31:45MARTORELL GISPERT, ANGELSd 125157a214a3,8 km15:47 min
05:31:55GONZLEZ GISPERT, ENRICd 14071582153,8 km15:48 min
05:32:07GUASCH CASADEVALL, GUILLEMd 11261592163,79 km15:48 min
05:33:23LPEZ MARTNEZ, JORGEd 13341602173,78 km15:52 min
05:33:37CASADEVALL MUNN, LURDESd 112458a218a3,78 km15:53 min
05:33:45BENKHEROUF KERRI, BAHDJAd 108359a219a3,78 km15:53 min
05:33:47LPEZ MARTNEZ, PEDROd 13071612203,77 km15:53 min
05:33:51YAHIA-CHEIKH SERRA, NOREDDINEd 10821622213,77 km15:53 min
05:34:07CUADRA PEREZ, CARMEd 102960a222a3,77 km15:54 min
05:34:09MATANZAS MORA, FEDERICOd 13331632233,77 km15:54 min
05:34:38TRUYOLS CAMPABADAL, JAUMEd 12011642243,77 km15:56 min
05:34:40BOSQUED RICART, SONIAd 126461a225a3,76 km15:56 min
05:34:53DE CAMACHO, MONTSERRATd 135262a226a3,76 km15:56 min
05:34:55RICART SANCHEZ, FRANCISCAd 104063a227a3,76 km15:56 min
05:35:04COMPANY DIEZ, ALBERTd 13531652283,76 km15:57 min
05:35:06CASADO RODRIGUEZ, NOELIAd 140364a229a3,76 km15:57 min
05:35:12ALONSO BES, IVNd 14041662303,76 km15:57 min
05:35:13CAPDEVILA, ENRICd 11371672313,76 km15:57 min
05:35:42GOMEZ, LARAd 118665a232a3,75 km15:59 min
05:36:03CONTRERAS, IVNd 11881682333,75 km16 min
05:36:05BOADA VALMASEDA, JOANd 13671692343,75 km16 min
05:36:11GARCIA, OLAYAd 118966a235a3,75 km16 min
05:36:21CANDON MARTINEZ, JUAN MANUELd 11951702363,75 km16 min
05:38:31MARTINEZ CASTILLEJO, PATRICIAd 103367a237a3,72 km16:7 min
05:40:44ELVIRA NUEZ, SHEIDAd 107668a238a3,7 km16:13 min
05:40:58GARCA CORTS, CAROLINAd 104969a239a3,7 km16:14 min
05:41:00BALLESTEROS LLORENTE, ANA ISABELd 126570a240a3,7 km16:14 min saltar saltar
05:41:03VERDIER GONZALEZ, MIQUEL ANGELd 10691712413,69 km16:14 min saltar saltar
05:41:10MIQUEL COLOME, XAVIERd 10981722423,69 km16:14 min
05:41:11JURADO VAZQUEZ, ALEJANDROd 11351732433,69 km16:14 min
05:41:21CUADRADO GRACA, JESSd 10551742443,69 km16:15 min
05:41:22PORTA PALLARES, JOLANDAd 123671a245a3,69 km16:15 min
05:41:28IZQUIERDO TUGAS, M. MONTSERRATd 124372a246a3,69 km16:15 min
05:41:28SNCHEZ MARTNEZ, NOELIAd 100772a246a3,69 km16:15 min
05:41:35NIETO COLLADO, LIDIAd 114874a248a3,69 km16:15 min
05:41:39LVAREZ SNCHEZ, MONTSEd 100575a249a3,69 km16:16 min
05:41:48BALLEGA HIGUERAS, CELIAd 136276a250a3,69 km16:16 min
05:41:48SNCHEZ ZAMBRANA, JORDId 10061752503,69 km16:16 min
05:41:50NIETO FERNANDEZ, ANTONIOd 11341762523,69 km16:16 min
05:41:59SNCHEZ, JAIMEd 10041772533,68 km16:17 min
05:42:08BALLEGA HIGUERAS, MARIA JOSEFAd 136477a254a3,68 km16:17 min
05:42:08GMEZ DE DIOS, ALVAROd 13631782543,68 km16:17 min
05:43:49MARTNEZ PREZ, JAVIERd 12831792563,66 km16:22 min
05:44:14ALVARADO PASTOR, ESTHERd 128278a257a3,66 km16:23 min
05:44:22CARRILLO FERNNDEZ, RUBNd 11791802583,66 km16:23 min
05:44:30LOMBARTE BEL, SILVIAd 128179a259a3,66 km16:24 min
05:44:36ALVAREZ SUBIAS, EVAd 122480a260a3,66 km16:24 min
05:44:37CALERO DE DIEGO, NOEMd 118081a261a3,66 km16:24 min
05:44:46FRUCTUOSO BAREA, LLUISd 10181812623,65 km16:25 min
05:44:47CASAS ZAERA, ENRICd 12251822633,65 km16:25 min
05:45:03TAUSTE FORTUNY, JOSEPd 12231832643,65 km16:25 min
05:45:19DUEAS CEJUDO, JOSEd 11391842653,65 km16:26 min
05:46:42MORENO ALFARO, MNICAd 101682a266a3,63 km16:30 min
05:46:54MONTES ANGLADA, PEPAd 101483a267a3,63 km16:31 min
05:47:01GRAELL BULLICH, ANNAd 101084a268a3,63 km16:31 min
05:47:20SORIANO FOSES, SLVIAd 101385a269a3,63 km16:32 min
05:47:36MANCEBO SEGURA, MARIA LUZd 117486a270a3,62 km16:33 min saltar saltar
05:47:38GARCIA GRANADOS, TOMASd 11731852713,62 km16:33 min saltar saltar
05:47:51MARTINEZ RUDA, LAURAd 117587a272a3,62 km16:33 min
05:47:51SIXTO HERNANDEZ, MARCd 11761862723,62 km16:33 min
05:48:43PREZ DEL ROSARIO, ANA MARIAd 140888a274a3,61 km16:36 min
05:49:46AMAT SANCHIS, MONICAd 122289a275a3,6 km16:39 min
05:49:54AMAT VIDAL, JOSE Md 12211872763,6 km16:39 min
05:51:37PASTALL SUCARRATS, PEREd 10151882773,58 km16:44 min
05:51:45MACIAN CAMPOS, CRISTINAd 109590a278a3,58 km16:45 min
05:52:28CONEJERO ROMAGOSA, JAUMEd 13031892793,57 km16:47 min
05:52:29MIGUEL REVILLA, MNICAd 105691a280a3,57 km16:47 min
05:52:40CONEJERO CALVEL, MARIONAd 130492a281a3,57 km16:47 min
05:53:05MOLINOS MONFORT, CONSOLd 129893a282a3,57 km16:48 min
05:53:11RIVERO CEJAS, RUTd 138694a283a3,57 km16:49 min
05:54:58LEAL SIMON, OLGAd 120395a284a3,55 km16:54 min
05:55:07FIUS TUSQUELLAS, MONTSERRATd 120496a285a3,55 km16:54 min
05:56:56GARCA IVARS, CRISTINAd 127597a286a3,53 km16:59 min
05:57:00MORCILLO LIGORIT, SILVIAd 126698a287a3,53 km17 min
05:57:07GONZLEZ NICOLAS, JOSEPd 12761902883,53 km17 min
05:57:22CRESPO, ANABELd 137099a289a3,53 km17:1 min
05:57:25MARTNEZ RA, SUSANAd 1268100a290a3,53 km17:1 min
05:57:28ARIAS MACIAS, ISABELd 1371101a291a3,52 km17:1 min
05:57:36SAUMELL OLIVELLA, JOSEP M.d 11581912923,52 km17:1 min
05:57:39APARICIO MANCHADO, M. JOSEd 1269102a293a3,52 km17:1 min
05:57:39ARCOS GIL-ORTEGA, VIRGINIAd 1032102a293a3,52 km17:1 min
05:57:41MORCILLO LIGORIT, M. ANGELESd 1267104a295a3,52 km17:1 min
05:57:48SAUMELL OLIVELLA, EVAd 1156105a296a3,52 km17:2 min
05:58:14PEREZ TORRES, DOMINGOd 11571922973,52 km17:3 min
05:58:34LOPEZ ALVARO, ELENAd 1159106a298a3,51 km17:4 min
05:59:30LOPEZ ALVARO, MARCOSd 11601932993,5 km17:7 min
06:00:28CARBONELL CUADRAS, NRIAd 1392107a300a3,5 km17:9 min saltar saltar
06:00:34CRISOL ARIO, ALEJANDROd 13911943013,49 km17:10 min saltar saltar
06:01:31GONZLEZ ROMERO, ALBERTOd 11551953023,49 km17:12 min
06:02:03MULLERAT MOLINA, ANNAd 1022108a303a3,48 km17:14 min
06:02:05CALDERON GONZALO, MARCd 10241963043,48 km17:14 min
06:02:10BLANCH SEDO, EVAd 1341109a305a3,48 km17:14 min
06:02:27PELEGRIN MONTSERRAT, MARTAd 1050110a306a3,48 km17:15 min
06:02:46GARROTE MANSO, PAULA M.d 1342111a307a3,47 km17:16 min
06:02:51SOL PARS, MARTId 11631973083,47 km17:16 min
06:02:55RUANO QUESADA, DOLORSd 1164112a309a3,47 km17:16 min
06:03:00MARTN JULIN, MARIA ISABELd 1046113a310a3,47 km17:17 min
06:03:29VICENTE PERALES, JORGEd 11661983113,47 km17:18 min
06:03:31CORONEL, MIRTAd 1167114a312a3,47 km17:18 min
06:03:42CAMPI TORREBADELLA, AFRICAd 1258115a313a3,46 km17:19 min
06:03:50MONTERO RUFO, LOURDESd 1255116a314a3,46 km17:19 min
06:03:55MONTERO RUFO, FELId 1252117a315a3,46 km17:19 min
06:03:57MONTERO RUFO, MAGDALENAd 1254118a316a3,46 km17:19 min
06:04:13CORRAL RODRIGUEZ, JUAN ESTEBANd 12531993173,46 km17:20 min
06:04:33TEIXIDO COLL, DAVIDd 12572003183,46 km17:21 min
06:04:57ARRUFAT VILA, MIQUEL NGELd 10272013193,45 km17:22 min
06:05:08GONZALO GARCIA, OSCARd 10232023203,45 km17:23 min
06:05:15PLANAS, MNICAd 1028119a321a3,45 km17:23 min
06:05:28VILLA CANORAVILLA, EVAd 1240120a322a3,45 km17:24 min
06:05:34LPEZ VILLAR, CARMENd 1241121a323a3,45 km17:24 min
06:05:48SANCHEZ MARTN, NURIAd 1128122a324a3,44 km17:25 min
06:05:52RODRIGUEZ FERNANDEZ DE HENESTROSA, ANTONIOd 11292033253,44 km17:25 min
06:06:34TURO BARDAJI, TERESAd 1329123a326a3,44 km17:27 min
06:06:50GRAELL BULLICH, MARTAd 1011124a327a3,43 km17:28 min
06:07:47ROURA CALVET, MONTSERRATd 1019125a328a3,43 km17:30 min
06:08:19BOFARULL GIL, MIREIAd 13982043293,42 km17:32 min
06:08:25ALONSO BLANCO, ESTHERd 1397126a330a3,42 km17:32 min saltar saltar
06:08:41LAMENCA PORTERO, PILARd 1328127a331a3,42 km17:33 min saltar saltar
06:09:47DAZ DOMNGUEZ, MONTSEd 1012128a332a3,41 km17:36 min
06:10:44FERRE CIURANA, LAURAd 1058129a333a3,4 km17:39 min
06:12:15DUEAS CEJUDO, JUANd 12852053343,38 km17:43 min
06:12:25SNCHEZ URREA, PATRICIAd 1286130a335a3,38 km17:44 min
06:13:25LPEZ JIMENEZ, JUAN LUISd 13512063363,37 km17:46 min
06:15:45VILCHEZ SANCHEZ, DANIELd 11922073373,35 km17:53 min
06:16:47CORTS BRAA, DAVIDd 10722083383,34 km17:56 min
06:17:01CRUZ, CARMENd 1038131a339a3,34 km17:57 min
06:17:05GIL, ANTONIOd 10372093403,34 km17:57 min
06:17:16PI AMOEDO, JORGEd 11042103413,34 km17:57 min
06:17:17PEREZ MARTOS, PILId 1103132a342a3,34 km17:57 min
06:21:06MARTNEZ ABRIL, DAVIDd 10202113433,31 km18:8 min
06:21:36MERINO VENTURA, ESTHERd 1130133a344a3,3 km18:10 min
06:21:51BIOSCA SAGRERA, ANTONIOd 10432123453,3 km18:11 min
06:21:59SANCHEZ GRANDE, LUISd 11312133463,3 km18:11 min
06:22:16ALARCN PLAZA, MARISAd 1042134a347a3,3 km18:12 min
06:22:53SANCHEZ LAHOZ, GUILLEMd 10622143483,29 km18:13 min
06:22:58CABALLE BEL, TERESAd 1330135a349a3,29 km18:14 min
06:23:06BOIX CASTA, ELISABETHd 1054136a350a3,29 km18:14 min
06:23:09CASTA LOPEZ, TERESAd 1052137a351a3,29 km18:14 min
06:23:13JIMENEZ ROBLES, MARIANOd 13312153523,29 km18:14 min
06:23:19BOIX VILA, JORDId 10512163533,29 km18:15 min
06:26:32FILLET CASTELLA, MOISESd 11222173543,26 km18:24 min
06:30:24BONFILL RIBAS, ANNAd 1110138a355a3,23 km18:35 min
06:30:36NEZ CRDABA, DAVIDd 11112183563,23 km18:36 min
06:34:26CECILIA CARBALLIDO, JUANd 13592193573,19 km18:46 min
06:35:12RIB GUITART, JORDId 11622203583,19 km18:49 min
06:35:17ESTEVEZ CAMPOY, MARIA ANGELESd 1358139a359a3,19 km18:49 min
06:37:04MARTIN JIMENEZ, ALBAd 1326140a360a3,17 km18:54 min saltar saltar
06:37:10FERNNDEZ LUMBRERAS, BEATRIZd 1327141a361a3,17 km18:54 min saltar saltar
06:38:03REY ARRUGA, MARISAd 1073142a362a3,17 km18:57 min
06:38:13GALAN COLOM, NURIAd 1092143a363a3,16 km18:57 min
06:38:17RUIZ MARTIN, MONTSERRATd 1149144a364a3,16 km18:57 min
06:43:33VALLVERD BALA, TONAd 1064145a365a3,12 km19:12 min
06:43:37GODOY FUMAT, TRINId 1161146a366a3,12 km19:13 min
06:43:42LAHOZ PORTOLS, MARINAd 1061147a367a3,12 km19:13 min
06:48:19ORTEGA PELLICER, SERGId 12492213683,09 km19:26 min
06:48:22ANDUCAS POUS, CARLESd 12472223693,09 km19:26 min
06:48:24ABAD ESCOBAR, RAMNd 12482233703,09 km19:26 min
07:04:34CUEZVA, AMELIAd 1107148a371a2,97 km20:13 min
07:04:37GUARDIA, EMILIOd 11062243722,97 km20:13 min
07:12:54MARTINEZ DOMINGUEZ, JUAN FRANCISCOd 11332253732,91 km20:36 min
10:07:35CARBASSA INGLES, JOSEd 12062263742,07 km28:55 min saltar saltar


Informaci general   Notcies, activitats   Marxa del Garraf   Articles   Contactar